Regional Weather Roundup
Issued by NWS Sioux Falls, SD

Home | Current Version | Previous Version | Graphics & Text | Print | Product List | Glossary On
Versions: 1 2 3 4 5 6 7 8 9 10 11 12 13 14 15 16 17 18 19 20 21 22 23 24 25 26 27 28 29 30 31 32 33 34 35 36 37 38 39 40 41 42 43 44 45 46 47 48 49 50
000
ASUS43 KFSD 031102
RWRFSD

WEATHER ROUNDUP FOR SE SOUTH DAKOTA/SW MINNESOTA/NW IOWA
NATIONAL WEATHER SERVICE SIOUX FALLS SD
500 AM CST SAT DEC 03 2016

NOTE: "FAIR" INDICATES FEW OR NO CLOUDS BELOW 12,000 FEET WITH NO
SIGNIFICANT WEATHER AND OR OBSTRUCTIONS TO VISIBILITY.


SDZ038>040-050-052>070-031200-
SOUTHEAST SOUTH DAKOTA

CITY           SKY/WX    TMP DP  RH WIND       PRES   REMARKS
CHAMBERLAIN    MOCLDY    24  24  97 CALM      30.16F FOG
HURON          CLEAR     24  23  96 SE8       30.22F WCI  15
MADISON        CLOUDY    27  27 100 S7        30.24F WCI  19
MITCHELL       CLEAR     27  26  96 SE10      30.24F WCI  17
SIOUX FALLS    CLOUDY    31  27  85 S6        30.27F WCI  25
WINNER         CLOUDY    27  22  81 S9        30.13  WCI  18
YANKTON        CLEAR     27  21  80 E7        30.26F WCI  19
$$

MNZ071-072-080-081-089-090-097-098-031200-
SOUTHWEST MINNESOTA

CITY           SKY/WX    TMP DP  RH WIND       PRES   REMARKS
FAIRMONT       CLOUDY    28  20  71 NW8       30.32S WCI  20
JACKSON        CLOUDY    27  19  74 W6        30.30F WCI  20
LUVERNE        CLOUDY    30  25  80 CALM      30.29S
MARSHALL       MOCLDY    22  18  85 SW6       30.31S WCI  14
MONTEVIDEO     MOCLDY    25  25 100 CALM      30.31S
PIPESTONE      CLOUDY    27  23  86 S3        30.26F
REDWOOD FALLS  CLOUDY    28  19  69 W3        30.31
TRACY          CLOUDY    25  20  81 CALM      30.29F
WINDOM         CLOUDY    27  19  74 CALM      30.30S
WORTHINGTON    CLOUDY    27  23  85 CALM      30.29F
$$

IAZ001>003-012>014-020>022-031-032-NEZ013-014-SDZ071-031200-
NORTHWEST IOWA

CITY           SKY/WX    TMP DP  RH WIND       PRES   REMARKS
CHEROKEE       CLOUDY    32  30  94 CALM      30.31S
DENISON        CLEAR     28  27  93 SE5       30.29F WCI  23
ESTHERVILLE    CLOUDY    28  23  81 N3        30.30F
LE MARS        CLOUDY    30  28  93 S5        30.31F WCI  25
ORANGE CITY    CLOUDY    30  28  93 CALM      30.29F
SHELDON        CLOUDY    30  30 100 S3        30.28F
SIOUX CITY     CLEAR     26  23  88 E5        30.30F WCI  20
SPENCER        CLOUDY    31  27  85 W3        30.31S
STORM LAKE     CLOUDY    32  28  86 SW5       30.30F WCI  27
$$

ABBREVIATIONS USED IN REMARKS
   TC - TEMPERATURE IN CELSIUS
  WCI - WIND CHILL INDEX
   HX - HEAT INDEX
  VSB - VISIBILITY




USA.gov is the U.S. government's official web portal to all federal, state and local government web resources and services.